{"data":{"norad_id":60109,"epoch":"2026-05-25T02:55:41.454048Z","epoch_age_seconds":78600,"freshness":"FRESH","line1":"1 60109U 24117U   26145.12200757  .00001666  00000+0  68352-4 0  9999","line2":"2 60109  53.1612  41.7492 0001256  78.6808 281.4334 15.30196988108592","mean_motion":15.30196988,"eccentricity":0.0001256,"inclination_deg":53.1612,"raan_deg":41.7492,"arg_perigee_deg":78.6808,"mean_anomaly_deg":281.4334,"bstar":6.8352e-5,"rev_number":10859,"period_min":94.105530940961,"perigee_km":474.36328057368,"apogee_km":476.08484487264,"semimajor_km":6853.3610627232,"source":"CELESTRAK","updated_at":"2026-05-25T13:38:19.163942Z"}}